| time (UTC) | temp F | wind direction | speed MPH | gust MPH | rain 1hr in | rain 24hr in | rain mn in | humidity % | barometer mb |
| 20260906195003 | 73 | 49 | 3.0 | 8.0 | 0.00 | 0.01 | 0.01 | 70 | 1024.4 |
| 20260906192003 | 72 | 264 | 4.0 | 12.0 | 0.00 | 0.01 | 0.01 | 74 | 1024.5 |
| 20260906191003 | 73 | 154 | 5.0 | 10.0 | 0.00 | 0.01 | 0.01 | 72 | 1024.5 |
| 20260906190002 | 73 | 40 | 1.0 | 8.0 | 0.00 | 0.01 | 0.01 | 75 | 1024.7 |
| 20260906184003 | 72 | 353 | 4.0 | 10.0 | 0.00 | 0.01 | 0.01 | 76 | 1024.7 |
| 20260906183002 | 72 | 45 | 2.0 | 7.0 | 0.00 | 0.01 | 0.01 | 78 | 1024.7 |
| 20260906182003 | 72 | 341 | 3.0 | 10.0 | 0.00 | 0.01 | 0.01 | 77 | 1024.7 |
| 20260906181002 | 72 | 27 | 4.0 | 10.0 | 0.00 | 0.01 | 0.01 | 76 | 1024.8 |
| 20260906180004 | 72 | 302 | 3.0 | 12.0 | 0.00 | 0.01 | 0.01 | 77 | 1024.8 |
| 20260906174003 | 72 | 1 | 2.0 | 12.0 | 0.00 | 0.01 | 0.01 | 77 | 1024.6 |
| 20260906173003 | 73 | 286 | 4.0 | 13.0 | 0.00 | 0.01 | 0.01 | 78 | 1024.6 |
| 20260906171003 | 72 | 102 | 5.0 | 10.0 | 0.00 | 0.01 | 0.01 | 78 | 1024.6 |
| 20260906170003 | 73 | 36 | 5.0 | 12.0 | 0.00 | 0.01 | 0.01 | 78 | 1024.6 |
| 20260906164002 | 72 | 340 | 3.0 | 9.0 | 0.00 | 0.01 | 0.01 | 78 | 1024.5 |
| 20260906163003 | 72 | 26 | 2.0 | 8.0 | 0.00 | 0.01 | 0.01 | 79 | 1024.5 |
| 20260906162005 | 72 | 328 | 3.0 | 9.0 | 0.00 | 0.01 | 0.01 | 80 | 1024.6 |
| 20260906161003 | 72 | 0 | 3.0 | 10.0 | 0.00 | 0.01 | 0.01 | 81 | 1024.7 |
| 20260906155003 | 70 | 143 | 3.0 | 12.0 | 0.00 | 0.01 | 0.01 | 82 | 1024.7 |
| 20260906154003 | 70 | 338 | 2.0 | 7.0 | 0.00 | 0.01 | 0.01 | 84 | 1024.7 |
| 20260906153003 | 69 | 354 | 2.0 | 7.0 | 0.00 | 0.01 | 0.01 | 84 | 1024.8 |
| 20260906152004 | 69 | 57 | 3.0 | 7.0 | 0.00 | 0.01 | 0.01 | 86 | 1024.6 |
| 20260906151003 | 68 | 9 | 2.0 | 9.0 | 0.00 | 0.01 | 0.01 | 88 | 1024.6 |
| 20260906150004 | 68 | 127 | 1.0 | 8.0 | 0.00 | 0.01 | 0.01 | 88 | 1024.5 |
| 20260906145004 | 68 | 9 | 3.0 | 12.0 | 0.00 | 0.01 | 0.01 | 88 | 1024.4 |
| 20260906144003 | 68 | 70 | 3.0 | 9.0 | 0.00 | 0.01 | 0.01 | 87 | 1024.4 |
| 20260906143004 | 68 | 113 | 3.0 | 8.0 | 0.00 | 0.01 | 0.01 | 88 | 1024.4 |
| 20260906142004 | 68 | 47 | 1.0 | 7.0 | 0.00 | 0.01 | 0.01 | 90 | 1024.4 |
| 20260906141004 | 67 | 89 | 1.0 | 7.0 | 0.00 | 0.01 | 0.01 | 93 | 1024.2 |
| 20260906140003 | 67 | 54 | 2.0 | 5.0 | 0.00 | 0.01 | 0.01 | 93 | 1024.3 |
| 20260906135004 | 66 | 281 | 2.0 | 7.0 | 0.00 | 0.01 | 0.01 | 95 | 1024.1 |
| 20260906134003 | 66 | 339 | 2.0 | 7.0 | 0.00 | 0.01 | 0.01 | 96 | 1024.1 |
| 20260906133004 | 66 | 310 | 2.0 | 6.0 | 0.00 | 0.01 | 0.01 | 98 | 1024.1 |
| 20260906132003 | 65 | 47 | 2.0 | 5.0 | 0.00 | 0.01 | 0.01 | 99 | 1024.1 |
| 20260906131004 | 65 | 51 | 1.0 | 3.0 | 0.00 | 0.01 | 0.01 | 100 | 1024.0 |
| 20260906130003 | 65 | 353 | 1.0 | 6.0 | 0.00 | 0.01 | 0.01 | 100 | 1023.9 |
| 20260906125004 | 64 | 99 | 1.0 | 3.0 | 0.00 | 0.01 | 0.01 | 100 | 1023.9 |
| 20260906124004 | 63 | 84 | 1.0 | 3.0 | 0.00 | 0.01 | 0.01 | 100 | 1023.8 |
| 20260906123004 | 62 | 314 | 0.0 | 2.0 | 0.00 | 0.01 | 0.01 | 100 | 1023.6 |
| 20260906122004 | 61 | 354 | 0.0 | 2.0 | 0.00 | 0.01 | 0.01 | 100 | 1023.7 |
| 20260906121004 | 60 | 343 | 0.0 | 0.0 | 0.00 | 0.01 | 0.01 | 100 | 1023.6 |
| 20260906120004 | 60 | 343 | 0.0 | 0.0 | 0.00 | 0.01 | 0.01 | 100 | 1023.6 |
| 20260906114003 | 59 | 343 | 0.0 | 0.0 | 0.00 | 0.01 | 0.01 | 99 | 1023.4 |
| 20260906113006 | 59 | 343 | 0.0 | 0.0 | 0.00 | 0.01 | 0.01 | 99 | 1023.1 |
| 20260906112006 | 59 | 343 | 0.0 | 0.0 | 0.00 | 0.02 | 0.01 | 99 | 1023.0 |
| 20260906111006 | 59 | 343 | 0.0 | 0.0 | 0.00 | 0.02 | 0.01 | 99 | 1022.7 |
| 20260906110007 | 59 | 343 | 0.0 | 0.0 | 0.00 | 0.02 | 0.01 | 99 | 1022.5 |
| 20260906104006 | 59 | 343 | 0.0 | 0.0 | 0.00 | 0.02 | 0.01 | 99 | 1022.3 |
| 20260906103005 | 60 | 343 | 0.0 | 0.0 | 0.00 | 0.02 | 0.01 | 99 | 1022.4 |
| 20260906102006 | 60 | 343 | 0.0 | 0.0 | 0.00 | 0.02 | 0.01 | 99 | 1022.3 |
| 20260906101006 | 60 | 343 | 0.0 | 0.0 | 0.00 | 0.02 | 0.01 | 99 | 1022.2 |
| 20260906100006 | 60 | 343 | 0.0 | 0.0 | 0.00 | 0.02 | 0.01 | 98 | 1022.0 |
| 20260906095007 | 60 | 343 | 0.0 | 0.0 | 0.00 | 0.02 | 0.01 | 99 | 1022.0 |
| 20260906094006 | 60 | 343 | 0.0 | 0.0 | 0.00 | 0.02 | 0.01 | 99 | 1022.0 |
| 20260906093008 | 60 | 343 | 0.0 | 0.0 | 0.00 | 0.02 | 0.01 | 99 | 1021.8 |
| 20260906091007 | 60 | 343 | 0.0 | 0.0 | 0.00 | 0.02 | 0.01 | 98 | 1021.7 |
| 20260906090006 | 60 | 343 | 0.0 | 0.0 | 0.00 | 0.02 | 0.01 | 98 | 1021.6 |
| 20260906085006 | 61 | 343 | 0.0 | 0.0 | 0.00 | 0.02 | 0.01 | 98 | 1021.4 |
| 20260906084007 | 61 | 343 | 0.0 | 0.0 | 0.00 | 0.02 | 0.01 | 98 | 1021.3 |
| 20260906083006 | 61 | 343 | 0.0 | 0.0 | 0.00 | 0.02 | 0.01 | 98 | 1021.2 |
| 20260906075006 | 62 | 343 | 0.0 | 0.0 | 0.00 | 0.02 | 0.01 | 98 | 1021.2 |
| 20260906074007 | 63 | 343 | 0.0 | 0.0 | 0.00 | 0.02 | 0.01 | 98 | 1021.2 |
| 20260906073006 | 63 | 343 | 0.0 | 0.0 | 0.00 | 0.02 | 0.01 | 98 | 1021.1 |
| 20260906072006 | 63 | 343 | 0.0 | 0.0 | 0.01 | 0.02 | 0.01 | 99 | 1021.0 |
| 20260906071006 | 63 | 343 | 0.0 | 0.0 | 0.01 | 0.02 | 0.01 | 98 | 1021.1 |
| 20260906070006 | 63 | 343 | 0.0 | 0.0 | 0.01 | 0.02 | 0.01 | 98 | 1021.1 |
| 20260906065006 | 64 | 343 | 0.0 | 0.0 | 0.01 | 0.02 | 0.01 | 99 | 1021.1 |
| 20260906063006 | 64 | 343 | 0.0 | 0.0 | 0.01 | 0.02 | 0.01 | 98 | 1021.2 |
| 20260906062006 | 64 | 343 | 0.0 | 0.0 | 0.00 | 0.01 | 0.00 | 98 | 1021.1 |
| 20260906061006 | 64 | 343 | 0.0 | 0.0 | 0.00 | 0.01 | 0.00 | 98 | 1021.2 |
| 20260906054006 | 64 | 343 | 0.0 | 0.0 | 0.00 | 0.01 | 0.00 | 98 | 1021.2 |
| 20260906052007 | 64 | 343 | 0.0 | 0.0 | 0.00 | 0.01 | 0.00 | 98 | 1021.1 |
| 20260906051006 | 64 | 343 | 0.0 | 0.0 | 0.00 | 0.01 | 0.00 | 98 | 1021.1 |
| 20260906045006 | 63 | 343 | 0.0 | 0.0 | 0.00 | 0.01 | 0.00 | 98 | 1020.9 |
| 20260906044007 | 63 | 343 | 0.0 | 0.0 | 0.00 | 0.01 | 0.00 | 98 | 1020.8 |
| 20260906043007 | 63 | 343 | 0.0 | 0.0 | 0.00 | 0.01 | 0.00 | 97 | 1020.7 |
| 20260906042006 | 63 | 343 | 0.0 | 0.0 | 0.00 | 0.01 | 0.00 | 97 | 1020.8 |
| 20260906041006 | 63 | 343 | 0.0 | 0.0 | 0.00 | 0.01 | 0.00 | 97 | 1020.7 |
| 20260906040007 | 63 | 343 | 0.0 | 0.0 | 0.00 | 0.01 | 0.00 | 97 | 1020.7 |
| 20260906035006 | 64 | 343 | 0.0 | 0.0 | 0.00 | 0.01 | 0.01 | 97 | 1020.6 |
| 20260906034007 | 64 | 343 | 0.0 | 0.0 | 0.00 | 0.01 | 0.01 | 97 | 1020.6 |
| 20260906033007 | 64 | 343 | 0.0 | 0.0 | 0.00 | 0.01 | 0.01 | 96 | 1020.7 |
| 20260906032006 | 64 | 343 | 0.0 | 0.0 | 0.00 | 0.01 | 0.01 | 96 | 1020.6 |
| 20260906031007 | 65 | 343 | 0.0 | 0.0 | 0.00 | 0.01 | 0.01 | 96 | 1020.5 |
| 20260906030006 | 65 | 343 | 0.0 | 0.0 | 0.00 | 0.01 | 0.01 | 96 | 1020.6 |
| 20260906025007 | 65 | 343 | 0.0 | 0.0 | 0.00 | 0.01 | 0.01 | 96 | 1020.6 |
| 20260906024006 | 65 | 343 | 0.0 | 0.0 | 0.00 | 0.01 | 0.01 | 96 | 1020.6 |
| 20260906023007 | 65 | 343 | 0.0 | 0.0 | 0.00 | 0.01 | 0.01 | 96 | 1020.5 |
| 20260906021003 | 65 | 343 | 0.0 | 0.0 | 0.00 | 0.01 | 0.01 | 96 | 1020.5 |
| 20260906020002 | 65 | 343 | 0.0 | 0.0 | 0.00 | 0.01 | 0.01 | 96 | 1020.4 |
| 20260906015003 | 65 | 343 | 0.0 | 0.0 | 0.00 | 0.01 | 0.01 | 95 | 1020.3 |
| 20260906014002 | 66 | 343 | 0.0 | 0.0 | 0.00 | 0.01 | 0.01 | 95 | 1020.2 |
| 20260906013003 | 66 | 343 | 0.0 | 0.0 | 0.00 | 0.01 | 0.01 | 95 | 1020.1 |
| 20260906012003 | 66 | 343 | 0.0 | 0.0 | 0.00 | 0.01 | 0.01 | 95 | 1020.1 |
| 20260906011002 | 66 | 343 | 0.0 | 0.0 | 0.00 | 0.01 | 0.01 | 94 | 1020.1 |
| 20260906010003 | 66 | 343 | 0.0 | 0.0 | 0.00 | 0.01 | 0.01 | 93 | 1020.0 |
| 20260906005003 | 66 | 343 | 0.0 | 0.0 | 0.00 | 0.01 | 0.01 | 93 | 1019.9 |
| 20260906003002 | 67 | 343 | 0.0 | 0.0 | 0.00 | 0.01 | 0.01 | 90 | 1019.8 |
| 20260906002002 | 67 | 343 | 0.0 | 0.0 | 0.00 | 0.01 | 0.01 | 90 | 1019.8 |
| 20260906000003 | 68 | 343 | 0.0 | 0.0 | 0.00 | 0.01 | 0.01 | 90 | 1019.9 |
| 20260905235003 | 69 | 343 | 0.0 | 0.0 | 0.00 | 0.01 | 0.01 | 89 | 1019.9 |
| 20260905234002 | 69 | 343 | 0.0 | 0.0 | 0.00 | 0.01 | 0.01 | 88 | 1020.0 |
| 20260905233003 | 69 | 343 | 0.0 | 0.0 | 0.00 | 0.01 | 0.01 | 88 | 1019.8 |
| 20260905232002 | 70 | 343 | 0.0 | 0.0 | 0.00 | 0.01 | 0.01 | 87 | 1019.9 |
| 20260905231002 | 70 | 343 | 0.0 | 0.0 | 0.00 | 0.01 | 0.01 | 86 | 1019.9 |
| 20260905230003 | 70 | 343 | 0.0 | 0.0 | 0.00 | 0.01 | 0.01 | 84 | 1020.0 |
| 20260905224003 | 71 | 343 | 0.0 | 0.0 | 0.00 | 0.01 | 0.01 | 80 | 1019.9 |
| 20260905222002 | 71 | 337 | 1.0 | 3.0 | 0.00 | 0.01 | 0.01 | 76 | 1019.8 |
| 20260905221003 | 71 | 346 | 1.0 | 3.0 | 0.00 | 0.01 | 0.01 | 76 | 1019.9 |
| 20260905215004 | 73 | 357 | 1.0 | 3.0 | 0.00 | 0.01 | 0.01 | 75 | 1019.7 |
| 20260905213002 | 74 | 4 | 0.0 | 3.0 | 0.00 | 0.01 | 0.01 | 71 | 1019.6 |
| 20260905212002 | 75 | 355 | 0.0 | 5.0 | 0.00 | 0.01 | 0.01 | 68 | 1019.5 |
| 20260905210003 | 77 | 321 | 1.0 | 3.0 | 0.00 | 0.01 | 0.01 | 63 | 1019.4 |
| 20260905205003 | 77 | 71 | 1.0 | 3.0 | 0.00 | 0.02 | 0.01 | 63 | 1019.4 |
| 20260905204003 | 77 | 107 | 1.0 | 3.0 | 0.00 | 0.02 | 0.01 | 65 | 1019.4 |
| 20260905202003 | 77 | 346 | 1.0 | 5.0 | 0.00 | 0.02 | 0.01 | 65 | 1019.3 |
| 20260905201003 | 77 | 78 | 2.0 | 3.0 | 0.00 | 0.02 | 0.01 | 65 | 1019.5 |